{"data":{"norad_id":49087,"intl_designator":"2021-075N","name":"ONEWEB-0298","alt_names":[],"object_type":"PAYLOAD","status":"ACTIVE","operator":null,"country":"UK","launch_date":"2021-08-21","launch_site_code":"TYMSC","launch_vehicle":null,"mission":null,"orbit_class":"UNKNOWN","rcs_meters":null,"size_class":null,"mass_kg":null,"dimensions":null,"purposes":["comms"],"wikipedia_slug":null,"has_3d_model":false,"image_url":null,"decayed_at":null,"tle_current":{"epoch":"2026-05-25T02:34:49.378944Z","epoch_age_seconds":59150,"freshness":"FRESH","line1":"1 49087U 21075N   26145.10751596  .00000012  00000+0 -19699-5 0  9997","line2":"2 49087  87.9156  10.4574 0001989  84.2031 275.9327 13.17647879230588","mean_motion":13.17647879,"eccentricity":0.0001989,"inclination_deg":87.9156,"raan_deg":10.4574,"arg_perigee_deg":84.2031,"mean_anomaly_deg":275.9327,"bstar":-1.9699e-6,"rev_number":23058,"period_min":109.28564626028,"perigee_km":1192.2115125357,"apogee_km":1195.2235962774,"semimajor_km":7571.8545544066,"source":"CELESTRAK","updated_at":"2026-05-25T13:38:22.483118Z"}}}